Weather History for KSJN - April, 2014

Change the Weather History Date:

Saturday, April 5, 2014

  Actual Average (WUND) Record (WUND)
Temperature  
Mean Temperature 36 °F -  
Max Temperature 51 °F - - (-1)
Min Temperature 21 °F - - (-1)
Degree Days  
Heating Degree Days 29    
Moisture  
Dew Point 16 °F    
Average Humidity 30    
Maximum Humidity 71    
Minimum Humidity 16    
Precipitation  
Precipitation 0.03 in - - ()
Sea Level Pressure  
Sea Level Pressure 29.77 in    
Wind  
Wind Speed 8 mph (WSW)    
Max Wind Speed 31 mph    
Max Gust Speed 38 mph    
Visibility 10 miles    
Events      
Averages and records for this station are not official NWS values.
T = Trace of Precipitation, MM = Missing Value Source: NWS Daily Summary

Daily Weather History Graph

Daily Weather History Graph

Search for Another Location

Airport or City:

Trip Planner

Search our weather history database for the weather conditions in past years. The results will help you decide how hot, cold, wet, or windy it might be!

Date:

Astronomy

Apr. 05, 2014 Rise Set
Actual Time 5:59 AM MST 6:41 PM MST
Civil Twilight 5:33 AM MST 7:07 PM MST
Nautical Twilight 5:03 AM MST 7:37 PM MST
Astronomical Twilight 4:32 AM MST 8:08 PM MST
Moon 10:18 AM MST (4/5) No Moon Set
Length of Visible Light 13h 33m
Length of Day
12h 42m
Waxing Crescent, 35% of the Moon is Illuminated
Apr 5
Waxing Crescent
Apr 7
First Quarter
Apr 15
Full
Apr 22
Last Quarter
Apr 28
New

Hourly Weather History & Observations

Time (MST) Temp. Windchill Dew Point Humidity Pressure Visibility Wind Dir Wind Speed Gust Speed Precip Events Conditions
12:54 AM 45.0 °F 42.6 °F 10.9 °F 25% 29.73 in 10.0 mi SW 4.6 mph - N/A   Clear
1:54 AM 44.1 °F - 10.9 °F 26% 29.72 in 10.0 mi Calm Calm - N/A   Clear
2:54 AM 44.1 °F - 12.0 °F 27% 29.70 in 10.0 mi Calm Calm - N/A   Mostly Cloudy
3:54 AM 42.1 °F - 12.0 °F 29% 29.69 in 10.0 mi Calm Calm - N/A   Mostly Cloudy
4:54 AM 42.1 °F 39.2 °F 12.0 °F 29% 29.69 in 10.0 mi South 4.6 mph - N/A   Partly Cloudy
5:54 AM 42.1 °F 37.7 °F 12.0 °F 29% 29.70 in 10.0 mi South 6.9 mph - N/A   Partly Cloudy
6:54 AM 43.0 °F - 12.9 °F 30% 29.73 in 10.0 mi Calm Calm - N/A   Overcast
7:54 AM 46.9 °F - 12.9 °F 25% 29.73 in 10.0 mi South 5.8 mph - N/A   Mostly Cloudy
8:54 AM 50.0 °F - 12.0 °F 22% 29.75 in 10.0 mi West 13.8 mph 17.3 mph N/A   Mostly Cloudy
9:54 AM 52.0 °F - 12.0 °F 20% 29.75 in 10.0 mi West 11.5 mph 18.4 mph N/A   Mostly Cloudy
10:54 AM 54.0 °F - 12.9 °F 20% 29.74 in 10.0 mi West 12.7 mph - N/A   Mostly Cloudy
11:54 AM 55.0 °F - 10.9 °F 17% 29.73 in 10.0 mi WSW 16.1 mph - N/A   Mostly Cloudy
12:54 PM 57.9 °F - 12.0 °F 16% 29.70 in 10.0 mi West 17.3 mph 24.2 mph N/A   Scattered Clouds
1:06 PM 55.0 °F - 10.0 °F 17% 29.85 in 10.0 mi SW 17.3 mph 24.2 mph N/A   Scattered Clouds
1:54 PM 55.9 °F - 10.9 °F 17% 29.70 in 10.0 mi WNW 17.3 mph 24.2 mph N/A   Partly Cloudy
2:54 PM 55.0 °F - 12.9 °F 19% 29.70 in 10.0 mi West 19.6 mph 26.5 mph N/A   Mostly Cloudy
3:54 PM 54.0 °F - 15.1 °F 22% 29.72 in 10.0 mi Variable 5.8 mph - N/A   Mostly Cloudy
4:54 PM 52.0 °F - 18.0 °F 26% 29.75 in 10.0 mi WNW 31.1 mph 38.0 mph N/A   Overcast
5:54 PM 51.1 °F - 17.1 °F 26% 29.77 in 10.0 mi WSW 15.0 mph 23.0 mph N/A   Mostly Cloudy
6:54 PM 48.0 °F - 19.0 °F 32% 29.80 in 10.0 mi West 11.5 mph - N/A   Scattered Clouds
7:54 PM 48.0 °F - 21.0 °F 34% 29.82 in 10.0 mi West 10.4 mph - N/A   Overcast
8:54 PM 46.9 °F - 23.0 °F 39% 29.83 in 10.0 mi WSW 18.4 mph 24.2 mph N/A   Mostly Cloudy
9:54 PM 43.0 °F 37.2 °F 25.0 °F 49% 29.86 in 10.0 mi SW 10.4 mph - N/A   Scattered Clouds
10:54 PM 42.1 °F 37.1 °F 25.0 °F 51% 29.86 in 10.0 mi SW 8.1 mph - N/A   Scattered Clouds
11:54 PM 39.9 °F 33.9 °F 24.1 °F 53% 29.86 in 10.0 mi SW 9.2 mph - N/A   Partly Cloudy